Zurück zum Katalog

STARLINK-30479

AktivKommunikationVLEO
NORAD 57898·PAYLOAD·🇺🇸 United States

Gestartet Sep 20, 2023 von Cape Canaveral Space Force Station

Loading…

Nächste Überflüge (nächste 24 Stunden)

TLE

AktuellSource: CelesTrak SupGP

Epoche: Sep 15, 2026, 02:19 UTC

1 57898C 23146H   26258.09701389  .00044401  00000+0  16084-2 0  2584
2 57898  43.0027 324.5880 0001777 259.0089  77.3266 15.27551554    12

Verfolge STARLINK-30479 in Echtzeit mit AllMySat

Download on the App Store